Weather History for KLVK - September, 2012

Change the Weather History Date:

Saturday, September 15, 2012

  Actual Average Record
Temperature  
Mean Temperature 72 °F 70 °F  
Max Temperature 90 °F 85 °F 109 °F (1971)
Min Temperature 53 °F 56 °F 39 °F (1970)
Degree Days  
Heating Degree Days 0 0  
Month to date heating degree days 0 0  
Since 1 July heating degree days 4 7  
Cooling Degree Days 7 6  
Month to date cooling degree days 97 97  
Year to date cooling degree days 794 722  
Growing Degree Days 21 (Base 50)    
Moisture  
Dew Point 47 °F    
Average Humidity 53    
Maximum Humidity 89    
Minimum Humidity 16    
Precipitation  
Precipitation 0.00 in 0.01 in 0.04 in (1982)
Month to date precipitation 0.00 0.06  
Year to date precipitation 7.06 9.97  
Since 1 July precipitation 0.00 0.07  
Sea Level Pressure  
Sea Level Pressure 30.03 in    
Wind  
Wind Speed 4 mph (WNW)    
Max Wind Speed 13 mph    
Max Gust Speed 15 mph    
Visibility 9 miles    
Events      
T = Trace of Precipitation, MM = Missing Value Source: NWS Daily Summary

Daily Weather History Graph

Daily Weather History Graph

Search for Another Location

Airport or City:

Trip Planner

Search our weather history database for the weather conditions in past years. The results will help you decide how hot, cold, wet, or windy it might be!

Date:

Astronomy

Sep. 15, 2012 Rise Set
Actual Time 6:49 AM PDT 7:14 PM PDT
Civil Twilight 6:23 AM PDT 7:40 PM PDT
Nautical Twilight 5:52 AM PDT 8:11 PM PDT
Astronomical Twilight 5:20 AM PDT 8:42 PM PDT
Moon 6:26 AM PDT (9/15) 6:48 PM PDT (9/15)
Length of Visible Light 13h 17m
Length of Day
12h 24m
Waning Crescent, 0% of the Moon is Illuminated
Sep 15
Waning Crescent
Sep 15
New
Sep 22
First Quarter
Sep 29
Full
Oct 8
Last Quarter

Hourly Weather History & Observations

Time (PDT) Temp. Dew Point Humidity Pressure Visibility Wind Dir Wind Speed Gust Speed Precip Events Conditions
12:53 AM 60.1 °F 51.1 °F 72% 30.04 in 10.0 mi WNW 6.9 mph - N/A   Clear
1:53 AM 57.9 °F 51.1 °F 78% 30.05 in 10.0 mi NW 6.9 mph - N/A   Clear
2:53 AM 57.0 °F 51.1 °F 81% 30.05 in 10.0 mi NW 4.6 mph - N/A   Clear
3:53 AM 55.9 °F 51.1 °F 84% 30.04 in 8.0 mi NW 3.5 mph - N/A   Clear
4:53 AM 55.0 °F 50.0 °F 83% 30.04 in 9.0 mi NW 4.6 mph - N/A   Clear
5:53 AM 53.1 °F 50.0 °F 89% 30.05 in 7.0 mi WNW 4.6 mph - N/A   Clear
6:53 AM 54.0 °F 50.0 °F 86% 30.06 in 6.0 mi Calm Calm - N/A   Partly Cloudy
7:19 AM 53.6 °F 51.8 °F 94% 30.07 in 6.0 mi Calm Calm - N/A   Scattered Clouds
7:24 AM 53.6 °F 51.8 °F 94% 30.07 in 5.0 mi NW 4.6 mph - N/A   Mostly Cloudy
7:53 AM 55.0 °F 52.0 °F 89% 30.07 in 5.0 mi Calm Calm - N/A   Scattered Clouds
7:55 AM 55.4 °F 51.8 °F 88% 30.07 in 5.0 mi Calm Calm - N/A   Mostly Cloudy
8:53 AM 57.9 °F 53.1 °F 84% 30.08 in 6.0 mi Calm Calm - N/A   Haze
9:53 AM 62.1 °F 53.1 °F 72% 30.09 in 10.0 mi Calm Calm - N/A   Clear
10:53 AM 68.0 °F 53.1 °F 59% 30.08 in 10.0 mi Calm Calm - N/A   Clear
11:53 AM 75.9 °F 51.1 °F 42% 30.06 in 10.0 mi Variable 3.5 mph - N/A   Clear
12:53 PM 82.0 °F 48.0 °F 30% 30.04 in 10.0 mi West 6.9 mph - N/A   Clear
1:53 PM 87.1 °F 44.1 °F 22% 30.02 in 10.0 mi WSW 8.1 mph - N/A   Clear
2:53 PM 89.1 °F 41.0 °F 19% 30.00 in 10.0 mi West 9.2 mph - N/A   Clear
3:53 PM 89.1 °F 39.0 °F 17% 29.98 in 10.0 mi West 10.4 mph - N/A   Clear
4:53 PM 88.0 °F 42.1 °F 20% 29.97 in 10.0 mi WNW 10.4 mph - N/A   Clear
5:53 PM 86.0 °F 37.9 °F 18% 29.96 in 10.0 mi WNW 8.1 mph - N/A   Clear
6:53 PM 81.0 °F 30.0 °F 16% 29.96 in 10.0 mi WNW 6.9 mph - N/A   Clear
7:53 PM 75.0 °F 42.1 °F 31% 29.97 in 10.0 mi WNW 5.8 mph - N/A   Clear
8:53 PM 72.0 °F 41.0 °F 33% 29.98 in 10.0 mi WNW 6.9 mph - N/A   Clear
9:53 PM 68.0 °F 43.0 °F 40% 29.99 in 10.0 mi WNW 5.8 mph - N/A   Clear
10:53 PM 66.9 °F 41.0 °F 39% 29.99 in 10.0 mi Calm Calm - N/A   Clear
11:53 PM 64.9 °F 46.0 °F 50% 29.99 in 10.0 mi Calm Calm - N/A   Clear